Powrót do katalogu

THOR ABLESTAR DEB

AktywnyLEO
NORAD 354·DEBRIS·🇺🇸 United States

Wystrzelony Jun 29, 1961 z Cape Canaveral Space Force Station

Loading…

Następne Przeloty (najbliższe 24 godziny)

TLE

ŚwieżeSource: Space-Track

Epoka: Sep 14, 2026, 10:10 UTC

1 00354U 61015DU  26257.42397142  .00000160  00000-0  32862-3 0  9990
2 00354  67.0647 259.1642 0172028 247.7467 185.2191 13.49482660489911

Śledź THOR ABLESTAR DEB w czasie rzeczywistym z AllMySat

Download on the App Store